Weather reports worldwide

Advertisment
Shobdon, United Kingdom (3520): temperature & dewpoint: 09.07.2018 20:00:00 - 15.07.2018 20:00:00 (BST)Shobdon, United Kingdom (3520): temperature -20cm & temperature -100cm: 09.07.2018 20:00:00 - 15.07.2018 20:00:00 (BST)Shobdon, United Kingdom (3520): wind speed: 09.07.2018 20:00:00 - 15.07.2018 20:00:00 (BST)Shobdon, United Kingdom (3520): wind direction: 09.07.2018 20:00:00 - 15.07.2018 20:00:00 (BST)Shobdon, United Kingdom (3520): reduced air pressure: 09.07.2018 20:00:00 - 15.07.2018 20:00:00 (BST)Shobdon, United Kingdom (3520): visibility: 09.07.2018 20:00:00 - 15.07.2018 20:00:00 (BST)Shobdon, United Kingdom (3520): sunshine duration: 09.07.2018 20:00:00 - 15.07.2018 20:00:00 (BST)Shobdon, United Kingdom (3520): precipitation: 09.07.2018 20:00:00 - 15.07.2018 20:00:00 (BST)
Date & Time tt [°C] td [°C] tt -20cm [°C] tt -100cm [°C] ff [km/h] ff [kn] dd ppp [hPa] vv [km] sd [min] rr [mm]
15.07.2018 20:00:00 - - - - - - - - - - -
15.07.2018 19:00:00 24,4 11,2 - - 16 9 WSW 1014,1 18 60 0,0
15.07.2018 18:00:00 25,3 11,3 - - 18 10 WSW 1014,3 19 48 0,0
15.07.2018 17:00:00 26,2 11,8 - - 18 10 W 1014,4 17 42 0,0
15.07.2018 16:00:00 25,8 12,6 - - 15 8 WSW 1014,8 19 48 0,0
15.07.2018 15:00:00 24,8 11,3 - - 9 5 W 1014,9 15 48 0,0
15.07.2018 14:00:00 25,6 13,1 - - 13 7 SW 1015,4 17 36 0,0
15.07.2018 13:00:00 23,3 13,2 - - 13 7 WSW 1016,2 19 36 0,0
15.07.2018 12:00:00 21,4 12,5 - - 9 5 W 1016,6 17 30 0,0
15.07.2018 11:00:00 20,7 13,5 - - 11 6 WSW 1016,9 14 24 0,0
15.07.2018 10:00:00 19,3 14,4 20,2 18,0 5 3 W 1017,2 11 18 0,0
15.07.2018 09:00:00 18,5 14,8 - - 8 4 WSW 1017,5 10 54 0,0
15.07.2018 08:00:00 15,3 14,6 - - 4 2 SE 1017,8 9 12 0,0
15.07.2018 07:00:00 12,3 12,3 - - 4 2 SE 1017,9 8 0 0,0
15.07.2018 06:00:00 8,9 8,8 - - 2 1 S 1017,9 7 0 0,0
15.07.2018 05:00:00 8,2 7,9 - - 0 0 N 1018,1 7 0 0,0
15.07.2018 04:00:00 8,7 8,3 - - 2 1 S 1018,4 9 0 0,0
15.07.2018 03:00:00 9,4 9,0 - - 4 2 W 1018,4 9 0 0,0
15.07.2018 02:00:00 10,7 10,1 - - 2 1 W 1018,4 9 0 0,0
15.07.2018 01:00:00 11,7 10,2 - - 4 2 W 1018,4 11 - 0,0
15.07.2018 00:00:00 14,0 12,2 - - 5 3 WNW 1018,4 13 0 0,0
14.07.2018 23:00:00 15,7 12,0 - - 5 3 NW 1018,5 12 0 0,0
14.07.2018 22:00:00 18,0 12,5 - - 9 5 NW 1018,3 12 0 0,0
14.07.2018 21:00:00 20,6 13,4 - - 11 6 W 1017,7 13 36 0,0
14.07.2018 20:00:00 23,0 13,4 - - 11 6 W 1017,4 14 54 0,0
14.07.2018 19:00:00 23,7 13,1 - - 11 6 SSW 1017,3 15 24 0,0
14.07.2018 18:00:00 24,7 12,5 - - 9 5 SSE 1017,5 14 54 0,0
14.07.2018 17:00:00 25,4 13,1 - - 9 5 SE 1017,7 15 54 0,0
14.07.2018 16:00:00 24,7 13,5 - - 11 6 SSE 1018,2 13 54 0,0
14.07.2018 15:00:00 24,4 13,4 - - 11 6 SW 1018,8 15 54 0,0
14.07.2018 14:00:00 23,3 13,8 - - 11 6 S 1019,5 12 54 0,0
14.07.2018 13:00:00 22,5 14,6 - - 9 5 S 1019,9 12 48 0,0
14.07.2018 12:00:00 21,5 14,8 - - 9 5 S 1020,4 9 54 0,0
14.07.2018 11:00:00 19,8 14,7 - - 5 3 SSE 1020,8 7 36 0,0
14.07.2018 10:00:00 18,2 15,1 20,0 18,0 5 3 SSE 1021,1 6 6 0,0
14.07.2018 09:00:00 17,8 14,4 - - 4 2 SW 1021,2 8 24 0,0
14.07.2018 08:00:00 16,1 14,3 - - 2 1 W 1021,3 9 0 0,0
14.07.2018 07:00:00 14,6 13,8 - - 4 2 W 1021,2 9 0 0,0
14.07.2018 06:00:00 13,3 12,9 - - 2 1 NNE 1021,1 7 0 0,0
14.07.2018 05:00:00 13,6 13,0 - - 5 3 WNW 1021,3 8 0 0,0
14.07.2018 04:00:00 14,2 14,1 - - 5 3 WNW 1021,5 8 0 0,0
14.07.2018 03:00:00 14,0 13,9 - - 0 0 N 1021,6 4,4 0 0,0
14.07.2018 02:00:00 13,3 13,2 - - 2 1 WNW 1021,7 4,5 0 0,0
14.07.2018 01:00:00 12,5 12,2 - - 4 2 W 1021,8 2,8 - 0,0
14.07.2018 00:00:00 14,1 13,8 - - 4 2 W 1021,7 4,6 0 0,0
13.07.2018 23:00:00 14,5 13,8 - - 4 2 E 1021,5 3,9 0 0,0
13.07.2018 22:00:00 15,4 14,3 - - 4 2 NNE 1021,3 5 0 0,0
13.07.2018 21:00:00 18,3 16,1 - - 4 2 ESE 1020,8 8 0 0,0
13.07.2018 20:00:00 19,2 16,3 - - 2 1 W 1020,8 10 24 0,0
13.07.2018 19:00:00 19,5 15,7 - - 8 4 E 1020,7 10 54 0,0
13.07.2018 18:00:00 18,6 16,1 - - 5 3 E 1020,9 9 12 0,0
13.07.2018 17:00:00 17,3 15,6 - - 9 5 E 1021,2 8 0 2,6
13.07.2018 16:00:00 19,0 15,6 - - 9 5 WSW 1021,7 6 0 0,0
13.07.2018 15:00:00 21,2 13,8 - - 13 7 WNW 1021,1 12 0 0,0
13.07.2018 14:00:00 23,1 14,0 - - 8 4 S 1021,2 10 24 0,0
13.07.2018 13:00:00 23,5 15,1 - - 9 5 ESE 1021,5 9 54 0,0
13.07.2018 12:00:00 21,4 14,5 - - 8 4 ESE 1022,1 10 60 0,0
13.07.2018 11:00:00 19,7 14,2 - - 5 3 SSE 1022,4 9 24 0,0
13.07.2018 10:00:00 17,5 13,1 20,4 18,0 2 1 SE 1022,5 10 0 0,0
13.07.2018 09:00:00 16,7 12,9 - - 5 3 E 1022,6 10 0 0,0
13.07.2018 08:00:00 15,8 12,6 - - 5 3 E 1022,6 10 0 0,0
13.07.2018 07:00:00 15,5 12,9 - - 5 3 ENE 1022,4 10 0 0,0
13.07.2018 06:00:00 15,4 12,8 - - 8 4 ENE 1022,3 10 0 0,0
13.07.2018 05:00:00 15,8 12,7 - - 8 4 ENE 1022,2 10 0 0,0
13.07.2018 04:00:00 16,6 13,1 - - 8 4 ENE 1022,1 10 0 0,0
13.07.2018 03:00:00 17,2 13,6 - - 8 4 ENE 1022,0 9 0 0,0
13.07.2018 02:00:00 17,7 14,1 - - 5 3 NE 1022,1 9 0 0,0
13.07.2018 01:00:00 18,1 14,3 - - 9 5 NNE 1021,9 9 - 0,0
13.07.2018 00:00:00 18,3 14,7 - - 5 3 N 1022,0 9 0 0,0
12.07.2018 23:00:00 18,5 14,8 - - 4 2 S 1021,8 11 0 0,0
12.07.2018 22:00:00 19,0 14,6 - - 9 5 N 1021,7 9 0 0,0
12.07.2018 21:00:00 19,5 15,1 - - 5 3 N 1021,3 10 0 0,0
12.07.2018 20:00:00 20,3 14,9 - - 8 4 NW 1021,2 10 0 0,0
12.07.2018 19:00:00 21,4 13,5 - - 8 4 W 1021,1 11 0 0,0
12.07.2018 18:00:00 22,4 12,5 - - 5 3 SSE 1021,0 12 24 0,0
12.07.2018 17:00:00 22,7 12,9 - - 5 3 S 1021,3 12 60 0,0
12.07.2018 16:00:00 22,0 13,2 - - 9 5 SE 1021,8 11 30 0,0
12.07.2018 15:00:00 21,0 14,6 - - 11 6 ESE 1022,0 9 12 0,0
12.07.2018 14:00:00 20,2 15,4 - - 9 5 E 1022,5 8 18 0,0
12.07.2018 13:00:00 18,6 14,7 - - 5 3 E 1022,8 8 0 0,0
12.07.2018 12:00:00 16,7 13,9 - - 5 3 ENE 1023,0 7 0 0,0
12.07.2018 11:00:00 16,5 14,5 - - 5 3 ENE 1022,8 7 0 0,0
12.07.2018 10:00:00 15,8 14,0 20,5 18,0 9 5 E 1022,7 8 0 0,0
12.07.2018 09:00:00 15,4 14,3 - - 5 3 ENE 1022,5 7 0 0,0
12.07.2018 08:00:00 15,0 14,4 - - 4 2 ENE 1022,4 6 0 0,6
12.07.2018 07:00:00 15,1 14,5 - - 4 2 ENE 1022,0 5 0 0,8
12.07.2018 06:00:00 15,3 14,5 - - 8 4 NE 1021,9 4,8 0 1,2
12.07.2018 05:00:00 16,1 13,4 - - 5 3 N 1021,8 8 0 0,0
12.07.2018 04:00:00 16,7 12,8 - - 8 4 N 1021,6 10 0 0,0
12.07.2018 03:00:00 17,2 12,3 - - 8 4 NNE 1021,3 11 0 0,0
12.07.2018 02:00:00 17,6 12,1 - - 5 3 NNE 1021,4 10 0 0,0
12.07.2018 01:00:00 18,2 12,6 - - 5 3 NE 1021,3 11 - 0,0
12.07.2018 00:00:00 18,7 12,5 - - 5 3 NE 1021,2 11 0 0,0
11.07.2018 23:00:00 19,1 12,7 - - 4 2 ENE 1021,3 11 0 0,0
11.07.2018 22:00:00 19,9 10,8 - - 5 3 N 1021,1 15 0 0,0
11.07.2018 21:00:00 20,5 11,4 - - 8 4 NW 1020,6 14 0 0,0
11.07.2018 20:00:00 21,7 11,0 - - 9 5 NW 1020,6 14 0 0,0
11.07.2018 19:00:00 22,0 11,4 - - 9 5 NW 1020,6 14 0 0,0
11.07.2018 18:00:00 22,9 11,8 - - 11 6 NW 1020,4 13 18 0,0
11.07.2018 17:00:00 23,6 12,3 - - 5 3 WNW 1020,6 13 6 0,0
11.07.2018 16:00:00 23,9 10,8 - - 5 3 S 1020,8 13 54 0,0
11.07.2018 15:00:00 23,8 12,6 - - 8 4 WSW 1021,3 16 6 0,0
11.07.2018 14:00:00 21,6 12,2 - - 8 4 W 1021,7 12 0 0,0
11.07.2018 13:00:00 22,9 11,6 - - 5 3 WSW 1021,9 15 48 0,0
11.07.2018 12:00:00 22,0 12,2 - - 5 3 ESE 1022,2 12 60 0,0
11.07.2018 11:00:00 20,3 12,2 - - 8 4 SE 1022,7 11 60 0,0
11.07.2018 10:00:00 19,3 13,1 20,4 18,0 5 3 E 1023,0 11 60 0,0
11.07.2018 09:00:00 17,7 12,6 - - 5 3 ESE 1023,3 10 60 0,0
11.07.2018 08:00:00 16,0 12,3 - - 4 2 ESE 1023,5 10 60 0,0
11.07.2018 07:00:00 12,6 12,6 - - 2 1 SW 1023,5 10 48 0,0
11.07.2018 06:00:00 9,1 8,9 - - 2 1 WSW 1023,6 8 0 0,0
11.07.2018 05:00:00 8,5 8,0 - - 2 1 WNW 1023,7 7 0 0,0
11.07.2018 04:00:00 9,1 8,5 - - 2 1 SE 1023,6 6 0 0,0
11.07.2018 03:00:00 9,9 8,8 - - 0 0 N 1023,8 7 0 0,0
11.07.2018 02:00:00 11,9 10,5 - - 5 3 E 1023,6 8 0 0,0
11.07.2018 01:00:00 13,2 9,6 - - 2 1 WSW 1023,5 9 - 0,0
11.07.2018 00:00:00 16,9 11,1 - - 9 5 NNE 1023,4 10 0 0,0
10.07.2018 23:00:00 16,9 10,3 - - 5 3 ENE 1023,4 10 0 0,0
10.07.2018 22:00:00 19,1 10,0 - - 11 6 NNE 1023,1 11 0 0,0
10.07.2018 21:00:00 20,4 8,7 - - 8 4 NNE 1022,6 12 0 0,0
10.07.2018 20:00:00 20,9 9,7 - - 5 3 NNW 1022,6 12 0 0,0
10.07.2018 19:00:00 21,9 8,7 - - 8 4 NNW 1022,6 12 0 0,0
10.07.2018 18:00:00 22,2 8,7 - - 9 5 NE 1022,7 13 12 0,0
10.07.2018 17:00:00 22,5 10,5 - - 9 5 ENE 1022,9 12 6 0,0
10.07.2018 16:00:00 22,1 11,1 - - 11 6 ENE 1023,5 11 36 0,0
10.07.2018 15:00:00 22,5 11,9 - - 11 6 NE 1023,7 12 30 0,0
10.07.2018 14:00:00 21,9 12,8 - - 8 4 NE 1024,0 11 6 0,0
10.07.2018 13:00:00 21,0 12,9 - - 8 4 ENE 1024,4 11 30 0,0
10.07.2018 12:00:00 20,0 13,6 - - 5 3 NE 1024,9 10 12 0,0
10.07.2018 11:00:00 18,8 12,9 - - 9 5 E 1025,1 10 6 0,0
10.07.2018 10:00:00 17,6 12,9 20,7 18,0 8 4 E 1025,4 9 6 0,0
10.07.2018 09:00:00 16,8 12,6 - - 4 2 E 1025,9 10 0 0,0
10.07.2018 08:00:00 16,0 12,4 - - 2 1 SE 1026,0 13 0 0,0
10.07.2018 07:00:00 15,7 12,5 - - 4 2 E 1026,1 11 0 0,0
10.07.2018 06:00:00 15,7 12,6 - - 5 3 ESE 1026,1 11 0 0,0
10.07.2018 05:00:00 15,9 12,2 - - 9 5 E 1026,0 11 0 0,0
10.07.2018 04:00:00 16,6 12,7 - - 9 5 ESE 1025,8 14 0 0,0
10.07.2018 03:00:00 16,6 13,1 - - 8 4 NE 1025,7 12 0 0,0
10.07.2018 02:00:00 16,3 12,9 - - 5 3 NE 1026,0 11 0 0,0
10.07.2018 01:00:00 17,0 12,9 - - 9 5 NE 1026,1 12 - 0,0
10.07.2018 00:00:00 17,1 12,9 - - 13 7 NNE 1025,8 12 0 0,0
09.07.2018 23:00:00 18,2 12,7 - - 11 6 NNE 1025,6 12 0 0,0
09.07.2018 22:00:00 19,4 12,2 - - 13 7 NNE 1025,3 13 6 0,0
09.07.2018 21:00:00 21,2 12,6 - - 11 6 NE 1024,7 13 60 0,0
09.07.2018 20:00:00 23,2 13,1 - - 11 6 NE 1024,5 13 60 0,0

tt = temperature
td = dewpoint
tt -20cm = temperature -20cm
tt -100cm = temperature -100cm
ff = wind speed
dd = wind direction
ppp = reduced air pressure
vv = visibility
sd = sunshine duration
rr = precipitation

Next stations